| time (UTC) | temp F | wind direction | speed knots | gust knots | rain 1hr in | rain 24hr in | rain mn in | humidity % | barometer mb |
| 20260510173536 | 63 | 192 | 0.0 | 3.5 | 0.00 | 0.00 | 0.00 | 53 | 1018.4 |
| 20260510173040 | 63 | 125 | 0.9 | 3.5 | 0.00 | 0.00 | 0.00 | 55 | 1018.5 |
| 20260510172533 | 62 | 115 | 0.0 | 2.6 | 0.00 | 0.00 | 0.00 | 59 | 1018.4 |
| 20260510172022 | 62 | 148 | 0.0 | 3.5 | 0.00 | 0.00 | 0.00 | 58 | 1018.5 |
| 20260510171513 | 61 | 121 | 1.7 | 3.5 | 0.00 | 0.00 | 0.00 | 56 | 1018.6 |
| 20260510171002 | 61 | 99 | 0.0 | 3.5 | 0.00 | 0.00 | 0.00 | 59 | 1018.7 |
| 20260510170502 | 60 | 124 | 0.0 | 3.5 | 0.00 | 0.00 | 0.00 | 58 | 1018.8 |
| 20260510170003 | 60 | 103 | 0.9 | 3.5 | 0.00 | 0.00 | 0.00 | 60 | 1018.9 |
| 20260510165458 | 59 | 111 | 0.0 | 3.5 | 0.00 | 0.00 | 0.00 | 62 | 1018.8 |
| 20260510165205 | 59 | 111 | 0.9 | 3.5 | 0.00 | 0.00 | 0.00 | 61 | 1018.8 |
| 20260510164443 | 58 | 108 | 0.0 | 0.9 | 0.00 | 0.00 | 0.00 | 63 | 1018.9 |
| 20260510163938 | 57 | 108 | 0.0 | 1.7 | 0.00 | 0.00 | 0.00 | 63 | 1018.9 |
| 20260510163434 | 57 | 108 | 0.0 | 1.7 | 0.00 | 0.00 | 0.00 | 65 | 1018.9 |
| 20260510162933 | 56 | 108 | 0.0 | 2.6 | 0.00 | 0.00 | 0.00 | 65 | 1018.9 |
| 20260510162434 | 56 | 108 | 0.9 | 2.6 | 0.00 | 0.00 | 0.00 | 65 | 1018.9 |
| 20260510161934 | 56 | 112 | 0.0 | 1.7 | 0.00 | 0.00 | 0.00 | 68 | 1018.9 |
| 20260510161652 | 55 | 116 | 0.0 | 2.6 | 0.00 | 0.00 | 0.00 | 67 | 1019.1 |
| 20260510160930 | 55 | 117 | 0.0 | 1.7 | 0.00 | 0.00 | 0.00 | 68 | 1019.2 |
| 20260510160432 | 55 | 101 | 0.0 | 1.7 | 0.00 | 0.00 | 0.00 | 68 | 1019.3 |
| 20260510155905 | 54 | 101 | 0.0 | 1.7 | 0.00 | 0.00 | 0.00 | 70 | 1019.3 |
| 20260510155636 | 54 | 98 | 0.0 | 2.6 | 0.00 | 0.00 | 0.00 | 70 | 1019.4 |
| 20260510154905 | 54 | 98 | 0.9 | 2.6 | 0.00 | 0.00 | 0.00 | 71 | 1019.5 |
| 20260510154405 | 53 | 80 | 0.0 | 2.6 | 0.00 | 0.00 | 0.00 | 71 | 1019.5 |
| 20260510153908 | 53 | 122 | 0.0 | 1.7 | 0.00 | 0.00 | 0.00 | 72 | 1019.5 |
| 20260510153405 | 52 | 167 | 0.0 | 4.3 | 0.00 | 0.00 | 0.00 | 75 | 1019.6 |
| 20260510152905 | 52 | 167 | 0.9 | 4.3 | 0.00 | 0.00 | 0.00 | 73 | 1019.5 |
| 20260510152400 | 52 | 94 | 0.9 | 2.6 | 0.00 | 0.00 | 0.00 | 74 | 1019.6 |
| 20260510151900 | 51 | 88 | 0.0 | 1.7 | 0.00 | 0.00 | 0.00 | 75 | 1019.7 |
| 20260510151356 | 51 | 83 | 0.0 | 0.9 | 0.00 | 0.00 | 0.00 | 76 | 1019.6 |
| 20260510150857 | 50 | 83 | 0.0 | 0.9 | 0.00 | 0.00 | 0.00 | 78 | 1019.6 |
| 20260510150356 | 50 | 83 | 0.0 | 1.7 | 0.00 | 0.00 | 0.00 | 76 | 1019.5 |
| 20260510150340 | 49 | 83 | 0.0 | 1.7 | 0.00 | 0.00 | 0.00 | 76 | 1019.6 |
| 20260510145342 | 49 | 82 | 0.0 | 3.5 | 0.00 | 0.00 | 0.00 | 79 | 1019.7 |
| 20260510144836 | 49 | 81 | 0.0 | 3.5 | 0.00 | 0.00 | 0.00 | 78 | 1019.8 |
| 20260510144332 | 48 | 142 | 0.0 | 1.7 | 0.00 | 0.00 | 0.00 | 79 | 1019.7 |
| 20260510144053 | 48 | 149 | 0.0 | 1.7 | 0.00 | 0.00 | 0.00 | 80 | 1019.8 |
| 20260510143335 | 47 | 144 | 0.0 | 1.7 | 0.00 | 0.00 | 0.00 | 82 | 1019.8 |
| 20260510142832 | 47 | 159 | 0.0 | 1.7 | 0.00 | 0.00 | 0.00 | 84 | 1019.9 |
| 20260510142332 | 46 | 280 | 0.0 | 0.0 | 0.00 | 0.00 | 0.00 | 88 | 1019.9 |
| 20260510141828 | 45 | 280 | 0.0 | 0.0 | 0.00 | 0.00 | 0.00 | 90 | 1020.1 |
| 20260510141327 | 45 | 280 | 0.0 | 2.6 | 0.00 | 0.00 | 0.00 | 92 | 1020.1 |
| 20260510140831 | 44 | 280 | 0.0 | 2.6 | 0.00 | 0.00 | 0.00 | 93 | 1020.1 |
| 20260510140328 | 44 | 272 | 0.0 | 0.0 | 0.00 | 0.00 | 0.00 | 95 | 1020.1 |
| 20260510140051 | 43 | 272 | 0.0 | 0.0 | 0.00 | 0.00 | 0.00 | 96 | 1020.1 |
| 20260510135329 | 42 | 272 | 0.0 | 0.0 | 0.00 | 0.00 | 0.00 | 96 | 1020.1 |
| 20260510134828 | 42 | 272 | 0.0 | 0.0 | 0.00 | 0.00 | 0.00 | 95 | 1019.9 |
| 20260510134326 | 42 | 272 | 0.0 | 0.0 | 0.00 | 0.00 | 0.00 | 95 | 1020.1 |
| 20260510134043 | 41 | 272 | 0.0 | 0.0 | 0.00 | 0.00 | 0.00 | 95 | 1020.1 |
| 20260510133527 | 41 | 272 | 0.0 | 0.0 | 0.00 | 0.00 | 0.00 | 95 | 1019.9 |
| 20260510132805 | 40 | 272 | 0.0 | 0.0 | 0.00 | 0.00 | 0.00 | 95 | 1020.1 |
| 20260510132306 | 40 | 272 | 0.0 | 0.0 | 0.00 | 0.00 | 0.00 | 95 | 1019.9 |
| 20260510131804 | 40 | 272 | 0.0 | 0.0 | 0.00 | 0.00 | 0.00 | 94 | 1019.9 |
| 20260510131305 | 40 | 272 | 0.0 | 0.0 | 0.00 | 0.00 | 0.00 | 94 | 1020.1 |
| 20260510130800 | 40 | 272 | 0.0 | 0.0 | 0.00 | 0.00 | 0.00 | 94 | 1020.1 |
| 20260510130254 | 39 | 272 | 0.0 | 0.0 | 0.00 | 0.00 | 0.00 | 94 | 1020.1 |
| 20260510125749 | 39 | 272 | 0.0 | 0.0 | 0.00 | 0.00 | 0.00 | 94 | 1020.1 |
| 20260510125733 | 39 | 272 | 0.0 | 0.0 | 0.00 | 0.00 | 0.00 | 93 | 1020.1 |
| 20260510124745 | 39 | 272 | 0.0 | 0.0 | 0.00 | 0.00 | 0.00 | 93 | 1020.2 |
| 20260510124520 | 39 | 272 | 0.0 | 0.0 | 0.00 | 0.00 | 0.00 | 93 | 1020.2 |
| 20260510123730 | 39 | 272 | 0.0 | 0.0 | 0.00 | 0.00 | 0.00 | 93 | 1020.2 |
| 20260510123233 | 39 | 272 | 0.0 | 0.0 | 0.00 | 0.00 | 0.00 | 93 | 1020.3 |
| 20260510122725 | 39 | 272 | 0.0 | 0.0 | 0.00 | 0.00 | 0.00 | 93 | 1020.2 |
| 20260510122226 | 39 | 272 | 0.0 | 0.0 | 0.00 | 0.00 | 0.00 | 92 | 1020.1 |
| 20260510121726 | 39 | 272 | 0.0 | 0.0 | 0.00 | 0.00 | 0.00 | 92 | 1020.1 |
| 20260510121226 | 39 | 272 | 0.0 | 0.0 | 0.00 | 0.00 | 0.00 | 92 | 1020.1 |
| 20260510120727 | 39 | 272 | 0.0 | 0.0 | 0.00 | 0.00 | 0.00 | 92 | 1020.1 |
| 20260510120222 | 40 | 272 | 0.0 | 0.0 | 0.00 | 0.00 | 0.00 | 92 | 1020.1 |
| 20260510115722 | 40 | 272 | 0.0 | 0.0 | 0.00 | 0.00 | 0.00 | 92 | 1020.1 |
| 20260510115222 | 40 | 272 | 0.0 | 0.0 | 0.00 | 0.00 | 0.00 | 92 | 1019.9 |
| 20260510114938 | 40 | 272 | 0.0 | 0.0 | 0.00 | 0.00 | 0.00 | 92 | 1020.1 |
| 20260510114202 | 40 | 272 | 0.0 | 0.9 | 0.00 | 0.00 | 0.00 | 92 | 1020.2 |
| 20260510113702 | 40 | 272 | 0.0 | 0.9 | 0.00 | 0.00 | 0.00 | 92 | 1020.1 |
| 20260510113205 | 40 | 272 | 0.0 | 0.0 | 0.00 | 0.00 | 0.00 | 92 | 1020.1 |
| 20260510112700 | 40 | 272 | 0.0 | 0.0 | 0.00 | 0.00 | 0.00 | 92 | 1020.3 |
| 20260510112156 | 40 | 272 | 0.0 | 0.0 | 0.00 | 0.00 | 0.00 | 91 | 1020.2 |
| 20260510111851 | 40 | 272 | 0.0 | 0.0 | 0.00 | 0.00 | 0.00 | 91 | 1020.3 |
| 20260510111127 | 40 | 272 | 0.0 | 0.0 | 0.00 | 0.00 | 0.00 | 91 | 1020.2 |
| 20260510110628 | 40 | 272 | 0.0 | 0.0 | 0.00 | 0.00 | 0.00 | 91 | 1020.2 |
| 20260510110128 | 40 | 272 | 0.0 | 0.0 | 0.00 | 0.00 | 0.00 | 91 | 1020.3 |
| 20260510105626 | 41 | 272 | 0.0 | 0.0 | 0.00 | 0.00 | 0.00 | 91 | 1020.3 |
| 20260510105121 | 41 | 272 | 0.0 | 0.0 | 0.00 | 0.00 | 0.00 | 91 | 1020.3 |
| 20260510104616 | 41 | 272 | 0.0 | 0.0 | 0.00 | 0.00 | 0.00 | 91 | 1020.4 |
| 20260510104113 | 41 | 272 | 0.0 | 0.0 | 0.00 | 0.00 | 0.00 | 90 | 1020.4 |
| 20260510103608 | 41 | 272 | 0.0 | 0.0 | 0.00 | 0.00 | 0.00 | 90 | 1020.4 |
| 20260510103109 | 41 | 272 | 0.0 | 0.0 | 0.00 | 0.00 | 0.00 | 90 | 1020.4 |
| 20260510102609 | 41 | 272 | 0.0 | 0.0 | 0.00 | 0.00 | 0.00 | 90 | 1020.3 |
| 20260510102112 | 41 | 272 | 0.0 | 0.0 | 0.00 | 0.00 | 0.00 | 90 | 1020.3 |
| 20260510101609 | 41 | 272 | 0.0 | 0.0 | 0.00 | 0.00 | 0.00 | 90 | 1020.3 |
| 20260510101318 | 42 | 272 | 0.0 | 0.0 | 0.00 | 0.00 | 0.00 | 90 | 1020.4 |
| 20260510100544 | 42 | 272 | 0.0 | 0.0 | 0.00 | 0.00 | 0.00 | 89 | 1020.4 |
| 20260510100045 | 42 | 272 | 0.0 | 0.0 | 0.00 | 0.00 | 0.00 | 89 | 1020.3 |
| 20260510095540 | 42 | 272 | 0.0 | 0.0 | 0.00 | 0.00 | 0.00 | 89 | 1020.2 |
| 20260510095035 | 42 | 272 | 0.0 | 0.0 | 0.00 | 0.00 | 0.00 | 89 | 1020.2 |
| 20260510094525 | 42 | 272 | 0.0 | 0.0 | 0.00 | 0.00 | 0.00 | 89 | 1020.2 |
| 20260510094025 | 42 | 272 | 0.0 | 0.0 | 0.00 | 0.00 | 0.00 | 89 | 1020.2 |
| 20260510093743 | 42 | 272 | 0.0 | 0.0 | 0.00 | 0.00 | 0.00 | 89 | 1020.3 |
| 20260510093025 | 42 | 272 | 0.0 | 0.0 | 0.00 | 0.00 | 0.00 | 88 | 1020.2 |
| 20260510092521 | 43 | 272 | 0.0 | 0.0 | 0.00 | 0.00 | 0.00 | 88 | 1020.3 |
| 20260510092016 | 43 | 272 | 0.0 | 0.0 | 0.00 | 0.00 | 0.00 | 88 | 1020.2 |
| 20260510091725 | 43 | 272 | 0.0 | 0.0 | 0.00 | 0.00 | 0.00 | 88 | 1020.2 |
| 20260510090950 | 43 | 272 | 0.0 | 0.0 | 0.00 | 0.00 | 0.00 | 88 | 1020.1 |
| 20260510090451 | 43 | 272 | 0.0 | 0.0 | 0.00 | 0.00 | 0.00 | 88 | 1020.1 |
| 20260510085946 | 43 | 272 | 0.0 | 0.0 | 0.00 | 0.00 | 0.00 | 88 | 1020.2 |
| 20260510085716 | 43 | 272 | 0.0 | 0.0 | 0.00 | 0.00 | 0.00 | 88 | 1020.2 |
| 20260510084941 | 43 | 272 | 0.0 | 0.0 | 0.00 | 0.00 | 0.00 | 88 | 1020.2 |
| 20260510084426 | 44 | 272 | 0.0 | 0.0 | 0.00 | 0.00 | 0.00 | 88 | 1020.2 |
| 20260510083926 | 44 | 272 | 0.0 | 0.0 | 0.00 | 0.00 | 0.00 | 87 | 1020.2 |
| 20260510083642 | 44 | 272 | 0.0 | 0.0 | 0.00 | 0.00 | 0.00 | 87 | 1020.2 |
| 20260510082917 | 44 | 272 | 0.0 | 0.0 | 0.00 | 0.00 | 0.00 | 87 | 1020.2 |
| 20260510082419 | 44 | 272 | 0.0 | 0.0 | 0.00 | 0.00 | 0.00 | 87 | 1020.2 |
| 20260510081917 | 44 | 272 | 0.0 | 0.0 | 0.00 | 0.00 | 0.00 | 87 | 1020.2 |
| 20260510081417 | 44 | 272 | 0.0 | 0.0 | 0.00 | 0.00 | 0.00 | 87 | 1020.3 |
| 20260510080902 | 44 | 272 | 0.0 | 0.0 | 0.00 | 0.00 | 0.00 | 87 | 1020.2 |
| 20260510080402 | 44 | 272 | 0.0 | 0.0 | 0.00 | 0.00 | 0.00 | 87 | 1020.2 |
| 20260510075905 | 44 | 272 | 0.0 | 0.0 | 0.00 | 0.00 | 0.00 | 86 | 1020.2 |
| 20260510075620 | 45 | 272 | 0.0 | 0.0 | 0.00 | 0.00 | 0.00 | 86 | 1020.3 |
| 20260510074848 | 45 | 272 | 0.0 | 0.0 | 0.00 | 0.00 | 0.00 | 86 | 1020.2 |
| 20260510074337 | 45 | 272 | 0.0 | 0.0 | 0.00 | 0.00 | 0.00 | 86 | 1020.2 |
| 20260510074053 | 45 | 272 | 0.0 | 0.0 | 0.00 | 0.00 | 0.00 | 86 | 1020.2 |
| 20260510073559 | 45 | 272 | 0.0 | 0.0 | 0.00 | 0.00 | 0.00 | 86 | 1020.3 |
| 20260510072835 | 45 | 272 | 0.0 | 0.0 | 0.00 | 0.00 | 0.00 | 86 | 1020.2 |
| 20260510072328 | 45 | 272 | 0.0 | 0.0 | 0.00 | 0.00 | 0.00 | 86 | 1020.2 |
| 20260510071823 | 45 | 272 | 0.0 | 0.0 | 0.00 | 0.00 | 0.00 | 86 | 1020.2 |
| 20260510071326 | 45 | 272 | 0.0 | 0.0 | 0.00 | 0.00 | 0.00 | 86 | 1020.2 |
| 20260510070819 | 45 | 272 | 0.0 | 0.0 | 0.00 | 0.00 | 0.00 | 85 | 1020.2 |
| 20260510070314 | 45 | 272 | 0.0 | 0.0 | 0.00 | 0.00 | 0.00 | 85 | 1020.2 |
| 20260510065814 | 45 | 272 | 0.0 | 0.0 | 0.00 | 0.00 | 0.00 | 84 | 1020.1 |
| 20260510065314 | 45 | 272 | 0.0 | 0.0 | 0.00 | 0.00 | 0.00 | 84 | 1020.1 |
| 20260510064811 | 45 | 272 | 0.0 | 0.0 | 0.00 | 0.00 | 0.00 | 84 | 1020.2 |
| 20260510064304 | 46 | 272 | 0.0 | 0.0 | 0.00 | 0.00 | 0.00 | 84 | 1020.2 |
| 20260510064011 | 46 | 272 | 0.0 | 0.0 | 0.00 | 0.00 | 0.00 | 84 | 1020.1 |
| 20260510063249 | 46 | 272 | 0.0 | 0.0 | 0.00 | 0.00 | 0.00 | 84 | 1020.1 |
| 20260510062752 | 46 | 272 | 0.0 | 0.0 | 0.00 | 0.00 | 0.00 | 84 | 1020.1 |
| 20260510062247 | 46 | 272 | 0.0 | 0.0 | 0.00 | 0.00 | 0.00 | 84 | 1020.1 |
| 20260510061737 | 46 | 272 | 0.0 | 1.7 | 0.00 | 0.00 | 0.00 | 84 | 1020.2 |
| 20260510061235 | 46 | 272 | 0.0 | 1.7 | 0.00 | 0.00 | 0.00 | 83 | 1020.2 |
| 20260510060955 | 46 | 272 | 0.0 | 0.0 | 0.00 | 0.00 | 0.00 | 84 | 1020.2 |
| 20260510060232 | 46 | 272 | 0.0 | 0.0 | 0.00 | 0.00 | 0.00 | 84 | 1020.1 |
| 20260510055717 | 46 | 272 | 0.0 | 0.0 | 0.00 | 0.00 | 0.00 | 83 | 1020.1 |
| 20260510055215 | 47 | 272 | 0.0 | 0.0 | 0.00 | 0.00 | 0.00 | 83 | 1020.1 |
| 20260510054711 | 47 | 272 | 0.0 | 0.0 | 0.00 | 0.00 | 0.00 | 82 | 1019.9 |
| 20260510054205 | 47 | 272 | 0.0 | 0.0 | 0.00 | 0.00 | 0.00 | 82 | 1019.9 |
| 20260510053703 | 47 | 272 | 0.0 | 0.0 | 0.00 | 0.00 | 0.00 | 82 | 1019.9 |
| 20260510053146 | 47 | 272 | 0.0 | 0.0 | 0.00 | 0.00 | 0.00 | 82 | 1019.8 |
| 20260510052646 | 47 | 272 | 0.0 | 0.0 | 0.00 | 0.00 | 0.00 | 81 | 1019.8 |
| 20260510052402 | 47 | 272 | 0.0 | 0.0 | 0.00 | 0.00 | 0.00 | 81 | 1019.8 |
| 20260510051641 | 48 | 272 | 0.0 | 0.9 | 0.00 | 0.00 | 0.00 | 81 | 1019.8 |
| 20260510051405 | 48 | 272 | 0.0 | 0.9 | 0.00 | 0.00 | 0.00 | 80 | 1019.7 |
| 20260510050637 | 48 | 272 | 0.0 | 0.0 | 0.00 | 0.00 | 0.00 | 81 | 1019.8 |
| 20260510050137 | 48 | 272 | 0.0 | 0.9 | 0.00 | 0.00 | 0.00 | 80 | 1019.7 |
| 20260510045626 | 48 | 272 | 0.0 | 0.9 | 0.00 | 0.00 | 0.00 | 80 | 1019.8 |
| 20260510045127 | 49 | 272 | 0.0 | 0.0 | 0.00 | 0.00 | 0.00 | 80 | 1019.8 |
| 20260510044627 | 49 | 272 | 0.0 | 1.7 | 0.00 | 0.00 | 0.00 | 81 | 1019.8 |
| 20260510044130 | 49 | 272 | 0.0 | 1.7 | 0.00 | 0.00 | 0.00 | 79 | 1019.7 |
| 20260510043623 | 49 | 272 | 0.0 | 0.0 | 0.00 | 0.00 | 0.00 | 79 | 1019.8 |
| 20260510043608 | 49 | 272 | 0.0 | 0.0 | 0.00 | 0.00 | 0.00 | 79 | 1019.8 |
| 20260510042613 | 50 | 272 | 0.0 | 0.0 | 0.00 | 0.00 | 0.00 | 78 | 1019.7 |
| 20260510042113 | 50 | 272 | 0.0 | 0.0 | 0.00 | 0.00 | 0.00 | 78 | 1019.7 |
| 20260510041615 | 50 | 272 | 0.0 | 0.0 | 0.00 | 0.00 | 0.00 | 76 | 1019.7 |
| 20260510041337 | 51 | 272 | 0.0 | 0.0 | 0.00 | 0.00 | 0.00 | 76 | 1019.7 |
| 20260510040613 | 51 | 272 | 0.0 | 0.0 | 0.00 | 0.00 | 0.00 | 76 | 1019.7 |
| 20260510040108 | 51 | 272 | 0.0 | 0.0 | 0.00 | 0.00 | 0.00 | 75 | 1019.6 |
| 20260510035608 | 52 | 272 | 0.0 | 0.0 | 0.00 | 0.00 | 0.00 | 75 | 1019.5 |
| 20260510035109 | 52 | 272 | 0.0 | 0.0 | 0.00 | 0.00 | 0.00 | 75 | 1019.5 |
| 20260510034609 | 52 | 272 | 0.0 | 0.0 | 0.00 | 0.00 | 0.00 | 75 | 1019.4 |
| 20260510034109 | 53 | 272 | 0.0 | 0.0 | 0.00 | 0.00 | 0.00 | 73 | 1019.3 |
| 20260510033605 | 53 | 272 | 0.0 | 0.0 | 0.00 | 0.00 | 0.00 | 73 | 1019.2 |
| 20260510033100 | 53 | 272 | 0.0 | 0.0 | 0.00 | 0.00 | 0.00 | 72 | 1019.2 |
| 20260510032600 | 54 | 272 | 0.0 | 0.0 | 0.00 | 0.00 | 0.00 | 71 | 1019.2 |
| 20260510032314 | 54 | 272 | 0.0 | 0.0 | 0.00 | 0.00 | 0.00 | 71 | 1019.1 |
| 20260510031550 | 55 | 272 | 0.0 | 0.0 | 0.00 | 0.00 | 0.00 | 70 | 1019.1 |
| 20260510031050 | 55 | 272 | 0.0 | 0.0 | 0.00 | 0.00 | 0.00 | 70 | 1018.9 |
| 20260510030548 | 56 | 272 | 0.0 | 0.0 | 0.00 | 0.00 | 0.00 | 69 | 1018.9 |
| 20260510030045 | 56 | 272 | 0.0 | 0.0 | 0.00 | 0.00 | 0.00 | 68 | 1018.9 |
| 20260510025545 | 57 | 272 | 0.0 | 0.0 | 0.00 | 0.00 | 0.00 | 67 | 1018.8 |
| 20260510025045 | 58 | 272 | 0.0 | 0.9 | 0.00 | 0.00 | 0.00 | 66 | 1018.8 |
| 20260510024540 | 58 | 272 | 0.0 | 0.9 | 0.00 | 0.00 | 0.00 | 64 | 1018.8 |
| 20260510024041 | 59 | 271 | 0.0 | 0.9 | 0.00 | 0.00 | 0.00 | 63 | 1018.7 |
| 20260510023539 | 60 | 271 | 0.0 | 0.9 | 0.00 | 0.00 | 0.00 | 62 | 1018.7 |
| 20260510023036 | 61 | 271 | 0.0 | 0.9 | 0.00 | 0.00 | 0.00 | 61 | 1018.8 |
| 20260510022536 | 61 | 271 | 0.0 | 0.9 | 0.00 | 0.00 | 0.00 | 60 | 1018.8 |
| 20260510022037 | 62 | 271 | 0.0 | 0.9 | 0.00 | 0.00 | 0.00 | 58 | 1018.8 |
| 20260510021526 | 62 | 271 | 0.0 | 0.0 | 0.00 | 0.00 | 0.00 | 57 | 1018.8 |
| 20260510021026 | 63 | 271 | 0.0 | 0.0 | 0.00 | 0.00 | 0.00 | 56 | 1018.7 |
| 20260510020525 | 63 | 271 | 0.0 | 0.9 | 0.00 | 0.00 | 0.00 | 55 | 1018.8 |
| 20260510020236 | 64 | 271 | 0.0 | 0.9 | 0.00 | 0.00 | 0.00 | 55 | 1018.7 |
| 20260510015512 | 64 | 281 | 0.0 | 1.7 | 0.00 | 0.00 | 0.00 | 50 | 1018.7 |
| 20260510015011 | 64 | 281 | 0.0 | 1.7 | 0.00 | 0.00 | 0.00 | 47 | 1018.7 |
| 20260510014512 | 65 | 223 | 0.0 | 4.3 | 0.00 | 0.00 | 0.00 | 51 | 1018.6 |
| 20260510014007 | 65 | 223 | 0.0 | 4.3 | 0.00 | 0.00 | 0.00 | 43 | 1018.6 |
| 20260510013507 | 65 | 302 | 0.0 | 2.6 | 0.00 | 0.00 | 0.00 | 47 | 1018.7 |
| 20260510013010 | 65 | 273 | 0.0 | 2.6 | 0.00 | 0.00 | 0.00 | 48 | 1018.7 |
| 20260510012727 | 65 | 260 | 0.0 | 1.7 | 0.00 | 0.00 | 0.00 | 46 | 1018.7 |
| 20260510012002 | 65 | 267 | 0.0 | 1.7 | 0.00 | 0.00 | 0.00 | 44 | 1018.7 |
| 20260510011503 | 66 | 294 | 0.0 | 0.9 | 0.00 | 0.02 | 0.00 | 45 | 1018.7 |
| 20260510011231 | 66 | 279 | 0.0 | 6.1 | 0.00 | 0.03 | 0.00 | 42 | 1018.7 |
| 20260510010504 | 66 | 327 | 1.7 | 6.1 | 0.00 | 0.03 | 0.00 | 42 | 1018.7 |
| 20260510010220 | 66 | 183 | 0.0 | 5.2 | 0.00 | 0.03 | 0.00 | 43 | 1018.6 |
| 20260510005454 | 67 | 298 | 0.0 | 5.2 | 0.00 | 0.03 | 0.00 | 42 | 1018.6 |
| 20260510004948 | 67 | 41 | 0.0 | 6.1 | 0.00 | 0.03 | 0.00 | 43 | 1018.6 |
| 20260510004450 | 67 | 130 | 0.9 | 6.1 | 0.00 | 0.03 | 0.00 | 42 | 1018.6 |
| 20260510003949 | 67 | 295 | 0.0 | 1.7 | 0.00 | 0.03 | 0.00 | 41 | 1018.5 |
| 20260510003705 | 67 | 94 | 0.0 | 1.7 | 0.00 | 0.03 | 0.00 | 40 | 1018.5 |
| 20260510002944 | 67 | 291 | 0.0 | 4.3 | 0.00 | 0.03 | 0.00 | 40 | 1018.5 |
| 20260510002444 | 67 | 232 | 0.0 | 4.3 | 0.00 | 0.03 | 0.00 | 39 | 1018.5 |
| 20260510001939 | 67 | 337 | 0.0 | 4.3 | 0.00 | 0.03 | 0.00 | 40 | 1018.5 |
| 20260510001435 | 68 | 304 | 0.0 | 4.3 | 0.00 | 0.03 | 0.00 | 42 | 1018.5 |
| 20260510001208 | 68 | 296 | 0.9 | 7.8 | 0.00 | 0.03 | 0.00 | 39 | 1018.5 |
| 20260510000435 | 69 | 337 | 1.7 | 7.8 | 0.00 | 0.03 | 0.00 | 41 | 1018.5 |
| 20260509235938 | 69 | 323 | 0.0 | 7.0 | 0.00 | 0.03 | 0.00 | 39 | 1018.4 |
| 20260509235421 | 69 | 284 | 0.0 | 7.0 | 0.00 | 0.03 | 0.00 | 39 | 1018.5 |
| 20260509234920 | 69 | 209 | 1.7 | 5.2 | 0.00 | 0.03 | 0.00 | 38 | 1018.4 |
| 20260509234636 | 69 | 185 | 0.0 | 2.6 | 0.00 | 0.03 | 0.00 | 41 | 1018.4 |
| 20260509233906 | 69 | 53 | 0.0 | 3.5 | 0.00 | 0.03 | 0.00 | 42 | 1018.5 |
| 20260509233401 | 68 | 265 | 0.0 | 3.5 | 0.00 | 0.03 | 0.00 | 41 | 1018.4 |
| 20260509232901 | 68 | 230 | 0.0 | 4.3 | 0.00 | 0.03 | 0.00 | 40 | 1018.5 |
| 20260509232357 | 68 | 318 | 0.9 | 7.0 | 0.00 | 0.03 | 0.00 | 41 | 1018.5 |
| 20260509231856 | 68 | 311 | 1.7 | 7.0 | 0.00 | 0.03 | 0.00 | 40 | 1018.6 |
| 20260509231619 | 68 | 24 | 0.9 | 6.1 | 0.00 | 0.03 | 0.00 | 40 | 1018.5 |
| 20260509230857 | 68 | 0 | 0.0 | 3.5 | 0.00 | 0.03 | 0.00 | 41 | 1018.6 |
| 20260509230354 | 67 | 25 | 0.9 | 3.5 | 0.00 | 0.03 | 0.00 | 42 | 1018.7 |
| 20260509225841 | 67 | 188 | 0.9 | 3.5 | 0.00 | 0.03 | 0.00 | 41 | 1018.7 |
| 20260509225338 | 67 | 0 | 0.9 | 7.0 | 0.00 | 0.03 | 0.00 | 41 | 1018.8 |
| 20260509224832 | 67 | 110 | 3.5 | 7.0 | 0.00 | 0.03 | 0.00 | 40 | 1018.8 |
| 20260509224321 | 67 | 261 | 0.0 | 4.3 | 0.00 | 0.03 | 0.00 | 42 | 1018.9 |
| 20260509223817 | 67 | 240 | 0.0 | 5.2 | 0.00 | 0.03 | 0.00 | 43 | 1019.1 |
| 20260509223317 | 67 | 155 | 0.9 | 7.0 | 0.00 | 0.03 | 0.00 | 41 | 1019.1 |
| 20260509222817 | 66 | 178 | 1.7 | 7.0 | 0.00 | 0.03 | 0.00 | 41 | 1019.2 |
| 20260509222318 | 66 | 131 | 0.0 | 3.5 | 0.00 | 0.03 | 0.00 | 44 | 1018.9 |
| 20260509221817 | 66 | 352 | 0.0 | 3.5 | 0.00 | 0.03 | 0.00 | 42 | 1019.1 |
| 20260509221312 | 66 | 348 | 0.9 | 3.5 | 0.00 | 0.03 | 0.00 | 43 | 1019.1 |
| 20260509220813 | 66 | 62 | 0.9 | 7.0 | 0.00 | 0.03 | 0.00 | 42 | 1019.1 |
| 20260509220542 | 67 | 336 | 0.9 | 7.0 | 0.00 | 0.03 | 0.00 | 42 | 1019.1 |
| 20260509215814 | 67 | 176 | 0.0 | 4.3 | 0.00 | 0.03 | 0.00 | 42 | 1019.2 |
| 20260509215317 | 67 | 321 | 0.9 | 4.3 | 0.00 | 0.03 | 0.00 | 41 | 1019.1 |
| 20260509214804 | 67 | 253 | 0.9 | 7.8 | 0.00 | 0.03 | 0.00 | 42 | 1019.1 |
| 20260509214304 | 67 | 272 | 0.9 | 7.8 | 0.00 | 0.03 | 0.00 | 43 | 1019.1 |
| 20260509213759 | 66 | 317 | 0.0 | 7.0 | 0.00 | 0.03 | 0.00 | 45 | 1019.2 |
| 20260509213259 | 66 | 171 | 0.0 | 7.0 | 0.00 | 0.03 | 0.00 | 42 | 1019.2 |
| 20260509213012 | 66 | 280 | 0.0 | 7.0 | 0.00 | 0.03 | 0.00 | 43 | 1019.3 |
| 20260509212257 | 67 | 128 | 0.9 | 4.3 | 0.00 | 0.03 | 0.00 | 41 | 1019.3 |
| 20260509211742 | 67 | 149 | 0.9 | 6.1 | 0.00 | 0.03 | 0.00 | 41 | 1019.3 |
| 20260509211232 | 67 | 201 | 0.0 | 7.0 | 0.00 | 0.03 | 0.00 | 41 | 1019.3 |
| 20260509210956 | 67 | 180 | 3.5 | 8.7 | 0.00 | 0.03 | 0.00 | 42 | 1019.4 |
| 20260509210707 | 67 | 154 | 1.7 | 8.7 | 0.00 | 0.03 | 0.00 | 41 | 1019.4 |
| 20260509205725 | 67 | 196 | 1.7 | 6.1 | 0.00 | 0.03 | 0.00 | 41 | 1019.4 |
| 20260509205214 | 67 | 202 | 0.0 | 6.1 | 0.00 | 0.03 | 0.00 | 44 | 1019.3 |
| 20260509204714 | 67 | 47 | 1.7 | 7.0 | 0.00 | 0.03 | 0.00 | 41 | 1019.3 |
| 20260509204216 | 67 | 348 | 1.7 | 7.0 | 0.00 | 0.03 | 0.00 | 44 | 1019.2 |
| 20260509203710 | 67 | 318 | 1.7 | 7.0 | 0.00 | 0.03 | 0.00 | 42 | 1019.3 |
| 20260509203210 | 67 | 317 | 0.9 | 7.0 | 0.00 | 0.03 | 0.00 | 45 | 1019.4 |
| 20260509202706 | 66 | 84 | 0.0 | 5.2 | 0.00 | 0.03 | 0.00 | 47 | 1019.3 |
| 20260509202206 | 65 | 103 | 0.0 | 5.2 | 0.00 | 0.03 | 0.00 | 45 | 1019.3 |
| 20260509201706 | 65 | 192 | 0.0 | 9.6 | 0.00 | 0.03 | 0.00 | 45 | 1019.4 |
| 20260509201206 | 65 | 130 | 0.0 | 9.6 | 0.00 | 0.03 | 0.00 | 43 | 1019.4 |
| 20260509200706 | 66 | 348 | 1.7 | 8.7 | 0.00 | 0.03 | 0.00 | 43 | 1019.4 |
| 20260509200207 | 66 | 217 | 2.6 | 7.8 | 0.00 | 0.03 | 0.00 | 43 | 1019.3 |
| 20260509195706 | 67 | 314 | 0.9 | 7.0 | 0.00 | 0.03 | 0.00 | 44 | 1019.4 |
| 20260509195202 | 67 | 211 | 0.9 | 7.0 | 0.00 | 0.03 | 0.00 | 46 | 1019.4 |
| 20260509194656 | 67 | 318 | 1.7 | 4.3 | 0.00 | 0.03 | 0.00 | 44 | 1019.4 |
| 20260509194200 | 66 | 175 | 0.9 | 4.3 | 0.00 | 0.03 | 0.00 | 45 | 1019.4 |
| 20260509193657 | 66 | 0 | 0.9 | 8.7 | 0.00 | 0.03 | 0.00 | 45 | 1019.4 |
| 20260509193158 | 66 | 51 | 0.0 | 8.7 | 0.00 | 0.03 | 0.00 | 49 | 1019.4 |
| 20260509192657 | 65 | 184 | 0.9 | 6.1 | 0.00 | 0.03 | 0.00 | 44 | 1019.4 |
| 20260509192153 | 65 | 321 | 0.9 | 3.5 | 0.00 | 0.03 | 0.00 | 44 | 1019.4 |
| 20260509191653 | 65 | 303 | 0.9 | 7.0 | 0.00 | 0.03 | 0.00 | 46 | 1019.4 |
| 20260509191153 | 65 | 0 | 0.9 | 7.8 | 0.00 | 0.03 | 0.00 | 49 | 1019.6 |
| 20260509190656 | 65 | 155 | 1.7 | 7.8 | 0.00 | 0.03 | 0.00 | 44 | 1019.5 |
| 20260509190154 | 65 | 311 | 1.7 | 6.1 | 0.00 | 0.03 | 0.00 | 47 | 1019.5 |
| 20260509185653 | 64 | 80 | 1.7 | 7.8 | 0.00 | 0.03 | 0.00 | 46 | 1019.5 |
| 20260509185153 | 64 | 323 | 1.7 | 7.8 | 0.00 | 0.03 | 0.00 | 47 | 1019.7 |
| 20260509184913 | 64 | 195 | 0.9 | 4.3 | 0.00 | 0.03 | 0.00 | 47 | 1019.6 |
| 20260509184138 | 63 | 96 | 1.7 | 8.7 | 0.00 | 0.03 | 0.00 | 49 | 1019.6 |
| 20260509183633 | 63 | 76 | 2.6 | 8.7 | 0.00 | 0.03 | 0.00 | 46 | 1019.5 |
| 20260509183134 | 63 | 182 | 3.5 | 7.8 | 0.00 | 0.03 | 0.00 | 47 | 1019.6 |
| 20260509182634 | 63 | 355 | 0.0 | 5.2 | 0.00 | 0.03 | 0.00 | 48 | 1019.5 |
| 20260509182134 | 63 | 288 | 0.9 | 5.2 | 0.00 | 0.03 | 0.00 | 49 | 1019.5 |
| 20260509181634 | 62 | 286 | 0.0 | 5.2 | 0.00 | 0.03 | 0.00 | 52 | 1019.6 |
| 20260509181350 | 62 | 335 | 0.9 | 6.1 | 0.00 | 0.03 | 0.00 | 51 | 1019.6 |
| 20260509180625 | 62 | 327 | 0.0 | 6.1 | 0.00 | 0.03 | 0.00 | 54 | 1019.7 |
| 20260509180125 | 62 | 196 | 3.5 | 7.8 | 0.00 | 0.03 | 0.00 | 51 | 1019.5 |
| 20260509175627 | 61 | 188 | 1.7 | 8.7 | 0.00 | 0.03 | 0.00 | 51 | 1019.6 |
| 20260509175124 | 61 | 203 | 1.7 | 8.7 | 0.00 | 0.03 | 0.00 | 54 | 1019.7 |
| 20260509174625 | 61 | 113 | 2.6 | 7.8 | 0.00 | 0.03 | 0.00 | 52 | 1019.6 |